Location: Homewood
(41.1836°S, 175.9581°E)
Time: 19:46:45
(UTC+00:00)

Milstar 3 Cent rocket - Pass Details

Date: 30 July 2024
Orbit: 707 x 5143 km, 28.3° (Epoch: 28 April)

Event Time Altitude Azimuth Distance (km) Brightness Sun altitude
Exits shadow 12:55:41 30° 59° (ENE) 6,721 6.5 -66.1°
Drops below altitude 10° 13:10:44 10° 88° (E) 7,468 7.1 -64.9°
Sets 13:16:32 0° 96° (E) 7,981 7.4 -64.4°
